Location: Casco Millpond
(44.5581°N, 87.6111°W)
Time: 08:28:51
(UTC+00:00)

SL-8 Rocket - Pass Details

Date: 16 January 2026
Orbit: 955 x 990 km, 82.9° (Epoch: 9 February)

Event Time Altitude Azimuth Distance (km) Brightness Sun altitude
Rises 12:49:55 0° 200° (SSW) 3,687 7.1 -6.1°
Reaches altitude 10° 12:52:29 10° 204° (SSW) 2,741 6.4 -5.7°
Maximum altitude 12:58:39 56° 282° (WNW) 1,162 4.1 -4.7°
Drops below altitude 10° 13:04:50 10° 0° (N) 2,742 6.1 -3.7°
Sets 13:07:25 0° 5° (N) 3,689 6.8 -3.3°
